Time,TemperatureF,DewpointF,PressureIn,WindDirection,WindDirectionDegrees,WindSpeedMPH,WindSpeedGustMPH,Humidity,HourlyPrecipIn,Conditions,Clouds,dailyrainin,SoftwareType,DateUTC
2013-08-04 00:03:00,61.2,52.5,30.20,North,0,0.0,0.0,73,0.00,,,0.00,WUHU21623XXSP,2013-08-04 05:03:00,
2013-08-04 00:08:00,61.0,52.3,30.20,North,0,0.0,0.0,73,0.00,,,0.00,WUHU21623XXSP,2013-08-04 05:08:00,
2013-08-04 00:13:00,60.6,52.0,30.20,North,0,0.0,0.0,73,0.00,,,0.00,WUHU21623XXSP,2013-08-04 05:13:00,
2013-08-04 00:18:00,60.6,52.3,30.20,North,0,0.0,0.0,74,0.00,,,0.00,WUHU21623XXSP,2013-08-04 05:18:00,
2013-08-04 00:23:00,60.6,52.3,30.21,North,0,0.0,0.0,74,0.00,,,0.00,WUHU21623XXSP,2013-08-04 05:23:00,
2013-08-04 00:28:00,60.6,52.7,30.20,North,0,0.0,0.0,75,0.00,,,0.00,WUHU21623XXSP,2013-08-04 05:28:00,
2013-08-04 00:33:00,60.6,52.7,30.20,North,0,0.0,0.0,75,0.00,,,0.00,WUHU21623XXSP,2013-08-04 05:33:00,
2013-08-04 00:38:00,60.4,52.5,30.20,North,0,0.0,0.0,75,0.00,,,0.00,WUHU21623XXSP,2013-08-04 05:38:00,
2013-08-04 00:44:00,60.4,52.9,30.20,North,0,0.0,0.0,76,0.00,,,0.00,WUHU21623XXSP,2013-08-04 05:44:00,
2013-08-04 00:49:00,60.4,52.9,30.21,North,0,0.0,0.0,76,0.00,,,0.00,WUHU21623XXSP,2013-08-04 05:49:00,
2013-08-04 00:53:00,60.4,52.9,30.20,North,0,0.0,0.0,76,0.00,,,0.00,WUHU21623XXSP,2013-08-04 05:53:00,
2013-08-04 00:59:00,60.4,52.5,30.20,North,0,0.0,0.0,75,0.00,,,0.00,WUHU21623XXSP,2013-08-04 05:59:00,
2013-08-04 01:03:00,60.4,52.5,30.20,North,0,0.0,0.0,75,0.00,,,0.00,WUHU21623XXSP,2013-08-04 06:03:00,
2013-08-04 01:10:00,60.4,52.5,30.21,North,0,0.0,0.0,75,0.00,,,0.00,WUHU21623XXSP,2013-08-04 06:10:00,
2013-08-04 01:15:00,60.1,52.2,30.21,North,0,0.0,0.0,75,0.00,,,0.00,WUHU21623XXSP,2013-08-04 06:15:00,
2013-08-04 01:20:00,60.1,52.2,30.21,North,0,0.0,0.0,75,0.00,,,0.00,WUHU21623XXSP,2013-08-04 06:20:00,
2013-08-04 01:25:00,60.1,52.2,30.21,North,0,0.0,0.0,75,0.00,,,0.00,WUHU21623XXSP,2013-08-04 06:25:00,
2013-08-04 01:30:00,59.9,52.0,30.21,North,0,0.0,0.0,75,0.00,,,0.00,WUHU21623XXSP,2013-08-04 06:30:00,
2013-08-04 01:35:00,59.7,51.8,30.22,North,0,0.0,0.0,75,0.00,,,0.00,WUHU21623XXSP,2013-08-04 06:35:00,
2013-08-04 01:40:00,59.5,51.6,30.21,North,0,0.0,0.0,75,0.00,,,0.00,WUHU21623XXSP,2013-08-04 06:40:00,
2013-08-04 01:45:00,59.5,52.0,30.22,North,0,0.0,0.0,76,0.00,,,0.00,WUHU21623XXSP,2013-08-04 06:45:00,
2013-08-04 01:50:00,59.4,51.8,30.22,North,0,0.0,0.0,76,0.00,,,0.00,WUHU21623XXSP,2013-08-04 06:50:00,
2013-08-04 01:55:00,59.4,51.8,30.22,North,0,0.0,0.0,76,0.00,,,0.00,WUHU21623XXSP,2013-08-04 06:55:00,
2013-08-04 02:00:00,59.2,51.6,30.22,North,0,0.0,0.0,76,0.00,,,0.00,WUHU21623XXSP,2013-08-04 07:00:00,
2013-08-04 02:05:00,59.2,51.6,30.22,North,0,0.0,0.0,76,0.00,,,0.00,WUHU21623XXSP,2013-08-04 07:05:00,
2013-08-04 02:10:00,59.2,52.0,30.22,North,0,0.0,0.0,77,0.00,,,0.00,WUHU21623XXSP,2013-08-04 07:10:00,
2013-08-04 02:15:00,59.0,51.8,30.22,North,0,0.0,0.0,77,0.00,,,0.00,WUHU21623XXSP,2013-08-04 07:15:00,
2013-08-04 02:20:00,58.8,51.6,30.21,North,0,0.0,0.0,77,0.00,,,0.00,WUHU21623XXSP,2013-08-04 07:20:00,
2013-08-04 02:25:00,58.8,51.6,30.21,North,0,0.0,0.0,77,0.00,,,0.00,WUHU21623XXSP,2013-08-04 07:25:00,
2013-08-04 02:30:00,58.8,51.6,30.21,North,0,0.0,0.0,77,0.00,,,0.00,WUHU21623XXSP,2013-08-04 07:30:00,
2013-08-04 02:35:00,59.0,51.8,30.21,North,0,0.0,0.0,77,0.00,,,0.00,WUHU21623XXSP,2013-08-04 07:35:00,
2013-08-04 02:40:00,58.8,51.6,30.21,North,0,0.0,0.0,77,0.00,,,0.00,WUHU21623XXSP,2013-08-04 07:40:00,
2013-08-04 02:45:00,58.8,51.6,30.21,North,0,0.0,0.0,77,0.00,,,0.00,WUHU21623XXSP,2013-08-04 07:45:00,
2013-08-04 02:50:00,58.6,51.4,30.20,North,0,0.0,0.0,77,0.00,,,0.00,WUHU21623XXSP,2013-08-04 07:50:00,
2013-08-04 02:55:00,58.3,51.1,30.20,North,0,0.0,0.0,77,0.00,,,0.00,WUHU21623XXSP,2013-08-04 07:55:00,
2013-08-04 03:00:00,58.1,51.3,30.20,North,0,0.0,0.0,78,0.00,,,0.00,WUHU21623XXSP,2013-08-04 08:00:00,
2013-08-04 03:05:00,57.9,51.4,30.20,North,0,0.0,0.0,79,0.00,,,0.00,WUHU21623XXSP,2013-08-04 08:05:00,
2013-08-04 03:10:00,57.9,51.4,30.20,North,0,0.0,0.0,79,0.00,,,0.00,WUHU21623XXSP,2013-08-04 08:10:00,
2013-08-04 03:15:00,58.1,51.6,30.19,North,0,0.0,0.0,79,0.00,,,0.00,WUHU21623XXSP,2013-08-04 08:15:00,
2013-08-04 03:21:00,58.1,51.6,30.19,North,0,0.0,0.0,79,0.00,,,0.00,WUHU21623XXSP,2013-08-04 08:21:00,
2013-08-04 03:26:00,57.9,51.4,30.19,North,0,0.0,0.0,79,0.00,,,0.00,WUHU21623XXSP,2013-08-04 08:26:00,
2013-08-04 03:31:00,57.9,51.4,30.19,North,0,0.0,0.0,79,0.00,,,0.00,WUHU21623XXSP,2013-08-04 08:31:00,
2013-08-04 03:36:00,57.9,51.4,30.19,North,0,0.0,0.0,79,0.00,,,0.00,WUHU21623XXSP,2013-08-04 08:36:00,
2013-08-04 03:41:00,57.7,51.3,30.19,North,0,0.0,0.0,79,0.00,,,0.00,WUHU21623XXSP,2013-08-04 08:41:00,
2013-08-04 03:46:00,57.7,51.3,30.19,North,0,0.0,0.0,79,0.00,,,0.00,WUHU21623XXSP,2013-08-04 08:46:00,
2013-08-04 03:50:00,57.6,51.4,30.19,North,0,0.0,0.0,80,0.00,,,0.00,WUHU21623XXSP,2013-08-04 08:50:00,
2013-08-04 03:56:00,57.4,51.3,30.18,North,0,0.0,0.0,80,0.00,,,0.00,WUHU21623XXSP,2013-08-04 08:56:00,
2013-08-04 04:01:00,57.4,51.3,30.18,North,0,0.0,0.0,80,0.00,,,0.00,WUHU21623XXSP,2013-08-04 09:01:00,
2013-08-04 04:06:00,57.4,51.3,30.18,North,0,0.0,0.0,80,0.00,,,0.00,WUHU21623XXSP,2013-08-04 09:06:00,
2013-08-04 04:19:00,57.4,51.3,30.19,North,0,0.0,0.0,80,0.00,,,0.00,WUHU21623XXSP,2013-08-04 09:19:00,
2013-08-04 04:24:00,56.5,51.0,30.17,North,0,0.0,0.0,82,0.00,,,0.00,WUHU21623XXSP,2013-08-04 09:24:00,
2013-08-04 04:29:00,56.5,51.0,30.17,North,0,0.0,0.0,82,0.00,,,0.00,WUHU21623XXSP,2013-08-04 09:29:00,
2013-08-04 04:34:00,56.5,51.0,30.17,North,0,0.0,0.0,82,0.00,,,0.00,WUHU21623XXSP,2013-08-04 09:34:00,
2013-08-04 04:39:00,56.5,51.0,30.18,North,0,0.0,0.0,82,0.00,,,0.00,WUHU21623XXSP,2013-08-04 09:39:00,
2013-08-04 04:44:00,56.5,51.3,30.17,North,0,0.0,0.0,83,0.00,,,0.00,WUHU21623XXSP,2013-08-04 09:44:00,
2013-08-04 04:49:00,56.7,51.8,30.17,North,0,0.0,0.0,84,0.00,,,0.00,WUHU21623XXSP,2013-08-04 09:49:00,
2013-08-04 04:54:00,56.8,52.0,30.17,North,0,0.0,0.0,84,0.00,,,0.00,WUHU21623XXSP,2013-08-04 09:54:00,
2013-08-04 04:59:00,56.8,52.0,30.17,North,0,0.0,0.0,84,0.00,,,0.00,WUHU21623XXSP,2013-08-04 09:59:00,
2013-08-04 05:04:00,56.8,52.0,30.17,North,0,0.0,0.0,84,0.00,,,0.00,WUHU21623XXSP,2013-08-04 10:04:00,
2013-08-04 05:09:00,56.8,52.0,30.17,North,0,0.0,0.0,84,0.00,,,0.00,WUHU21623XXSP,2013-08-04 10:09:00,
2013-08-04 05:14:00,57.0,52.2,30.17,North,0,0.0,0.0,84,0.00,,,0.00,WUHU21623XXSP,2013-08-04 10:14:00,
2013-08-04 05:19:00,57.2,52.4,30.17,North,0,0.0,0.0,84,0.00,,,0.00,WUHU21623XXSP,2013-08-04 10:19:00,
2013-08-04 05:24:00,57.0,52.2,30.17,North,0,0.0,0.0,84,0.00,,,0.00,WUHU21623XXSP,2013-08-04 10:24:00,
2013-08-04 05:29:00,56.8,52.0,30.17,North,0,0.0,0.0,84,0.00,,,0.00,WUHU21623XXSP,2013-08-04 10:29:00,
2013-08-04 05:35:00,56.5,51.7,30.17,North,0,0.0,0.0,84,0.00,,,0.00,WUHU21623XXSP,2013-08-04 10:35:00,
2013-08-04 05:40:00,56.3,51.5,30.18,North,0,0.0,0.0,84,0.00,,,0.00,WUHU21623XXSP,2013-08-04 10:40:00,
2013-08-04 05:45:00,56.1,51.3,30.18,North,0,0.0,0.0,84,0.00,,,0.00,WUHU21623XXSP,2013-08-04 10:45:00,
2013-08-04 05:50:00,56.1,51.3,30.18,North,0,0.0,0.0,84,0.00,,,0.00,WUHU21623XXSP,2013-08-04 10:50:00,
2013-08-04 05:54:00,56.1,51.3,30.18,North,0,0.0,0.0,84,0.00,,,0.00,WUHU21623XXSP,2013-08-04 10:54:00,
2013-08-04 06:00:00,56.1,51.3,30.19,North,0,0.0,0.0,84,0.00,,,0.00,WUHU21623XXSP,2013-08-04 11:00:00,
2013-08-04 06:05:00,56.1,51.6,30.19,North,0,0.0,0.0,85,0.00,,,0.00,WUHU21623XXSP,2013-08-04 11:05:00,
2013-08-04 06:10:00,56.1,51.6,30.19,North,0,0.0,0.0,85,0.00,,,0.00,WUHU21623XXSP,2013-08-04 11:10:00,
2013-08-04 06:15:00,56.1,51.6,30.18,North,0,0.0,0.0,85,0.00,,,0.00,WUHU21623XXSP,2013-08-04 11:15:00,
2013-08-04 06:20:00,56.3,51.8,30.18,North,0,0.0,0.0,85,0.00,,,0.00,WUHU21623XXSP,2013-08-04 11:20:00,
2013-08-04 06:25:00,56.3,51.8,30.18,North,0,0.0,0.0,85,0.00,,,0.00,WUHU21623XXSP,2013-08-04 11:25:00,
2013-08-04 06:30:00,56.5,52.0,30.18,North,0,0.0,0.0,85,0.00,,,0.00,WUHU21623XXSP,2013-08-04 11:30:00,
2013-08-04 06:35:00,56.8,52.3,30.18,North,0,0.0,0.0,85,0.00,,,0.00,WUHU21623XXSP,2013-08-04 11:35:00,
2013-08-04 06:40:00,57.0,52.8,30.18,North,0,0.0,0.0,86,0.00,,,0.00,WUHU21623XXSP,2013-08-04 11:40:00,
2013-08-04 06:45:00,57.4,52.9,30.18,North,0,0.0,0.0,85,0.00,,,0.00,WUHU21623XXSP,2013-08-04 11:45:00,
2013-08-04 06:50:00,57.6,53.1,30.18,North,0,0.0,0.0,85,0.00,,,0.00,WUHU21623XXSP,2013-08-04 11:50:00,
2013-08-04 06:55:00,57.7,53.2,30.18,North,0,0.0,0.0,85,0.00,,,0.00,WUHU21623XXSP,2013-08-04 11:55:00,
2013-08-04 07:00:00,57.9,53.1,30.18,North,0,0.0,0.0,84,0.00,,,0.00,WUHU21623XXSP,2013-08-04 12:00:00,
2013-08-04 07:05:00,58.1,53.3,30.18,North,0,0.0,0.0,84,0.00,,,0.00,WUHU21623XXSP,2013-08-04 12:05:00,
2013-08-04 07:10:00,58.3,53.5,30.19,North,0,0.0,0.0,84,0.00,,,0.00,WUHU21623XXSP,2013-08-04 12:10:00,
2013-08-04 07:15:00,58.6,53.8,30.19,North,0,0.0,0.0,84,0.00,,,0.00,WUHU21623XXSP,2013-08-04 12:15:00,
2013-08-04 07:20:00,58.8,53.7,30.19,North,0,0.0,0.0,83,0.00,,,0.00,WUHU21623XXSP,2013-08-04 12:20:00,
2013-08-04 07:25:00,59.2,54.0,30.20,North,0,0.0,0.0,83,0.00,,,0.00,WUHU21623XXSP,2013-08-04 12:25:00,
2013-08-04 07:30:00,59.4,54.2,30.19,North,0,0.0,0.0,83,0.00,,,0.00,WUHU21623XXSP,2013-08-04 12:30:00,
2013-08-04 07:35:00,59.7,54.6,30.20,North,0,0.0,0.0,82,0.00,,,0.00,WUHU21623XXSP,2013-08-04 12:35:00,
2013-08-04 07:40:00,60.1,54.6,30.20,North,0,0.0,0.0,82,0.00,,,0.00,WUHU21623XXSP,2013-08-04 12:40:00,
2013-08-04 07:45:00,60.4,54.6,30.20,North,0,0.0,0.0,81,0.00,,,0.00,WUHU21623XXSP,2013-08-04 12:45:00,
2013-08-04 07:50:00,60.6,54.8,30.21,North,0,0.0,0.0,81,0.00,,,0.00,WUHU21623XXSP,2013-08-04 12:50:00,
2013-08-04 07:55:00,61.0,54.8,30.21,North,0,0.0,0.0,80,0.00,,,0.00,WUHU21623XXSP,2013-08-04 12:55:00,
2013-08-04 08:00:00,61.3,55.2,30.21,North,0,0.0,0.0,80,0.00,,,0.00,WUHU21623XXSP,2013-08-04 13:00:00,
2013-08-04 08:05:00,61.5,55.0,30.21,North,0,0.0,0.0,79,0.00,,,0.00,WUHU21623XXSP,2013-08-04 13:05:00,
2013-08-04 08:10:00,61.7,55.1,30.21,North,0,0.0,0.0,79,0.00,,,0.00,WUHU21623XXSP,2013-08-04 13:10:00,
2013-08-04 08:15:00,62.2,55.6,30.22,North,0,0.0,0.0,79,0.00,,,0.00,WUHU21623XXSP,2013-08-04 13:15:00,
2013-08-04 08:20:00,62.4,55.4,30.22,North,0,0.0,0.0,78,0.00,,,0.00,WUHU21623XXSP,2013-08-04 13:20:00,
2013-08-04 08:25:00,62.4,55.4,30.22,North,0,0.0,0.0,78,0.00,,,0.00,WUHU21623XXSP,2013-08-04 13:25:00,
2013-08-04 08:30:00,62.8,55.8,30.22,North,0,0.0,0.0,78,0.00,,,0.00,WUHU21623XXSP,2013-08-04 13:30:00,
2013-08-04 08:35:00,63.1,56.1,30.22,North,0,0.0,0.0,78,0.00,,,0.00,WUHU21623XXSP,2013-08-04 13:35:00,
2013-08-04 08:40:00,63.1,55.8,30.22,North,0,0.0,0.0,77,0.00,,,0.00,WUHU21623XXSP,2013-08-04 13:40:00,
2013-08-04 08:46:00,63.7,56.3,30.22,North,0,0.0,0.0,77,0.00,,,0.00,WUHU21623XXSP,2013-08-04 13:46:00,
2013-08-04 08:50:00,64.2,56.5,30.22,North,0,0.0,0.0,76,0.00,,,0.00,WUHU21623XXSP,2013-08-04 13:50:00,
2013-08-04 08:56:00,64.8,57.0,30.22,North,0,0.0,0.0,76,0.00,,,0.00,WUHU21623XXSP,2013-08-04 13:56:00,
2013-08-04 09:01:00,64.9,57.2,30.22,North,0,0.0,0.0,76,0.00,,,0.00,WUHU21623XXSP,2013-08-04 14:01:00,
2013-08-04 09:06:00,65.1,57.0,30.22,North,0,0.0,0.0,75,0.00,,,0.00,WUHU21623XXSP,2013-08-04 14:06:00,
2013-08-04 09:11:00,65.1,57.3,30.22,North,0,0.0,0.0,76,0.00,,,0.00,WUHU21623XXSP,2013-08-04 14:11:00,
2013-08-04 09:16:00,65.5,57.3,30.21,North,0,0.0,0.0,75,0.00,,,0.00,WUHU21623XXSP,2013-08-04 14:16:00,
2013-08-04 09:21:00,65.7,57.1,30.21,North,0,0.0,0.0,74,0.00,,,0.00,WUHU21623XXSP,2013-08-04 14:21:00,
2013-08-04 09:26:00,65.8,57.3,30.21,North,0,0.0,0.0,74,0.00,,,0.00,WUHU21623XXSP,2013-08-04 14:26:00,
2013-08-04 09:31:00,66.4,57.8,30.21,North,0,0.0,0.0,74,0.00,,,0.00,WUHU21623XXSP,2013-08-04 14:31:00,
2013-08-04 09:35:00,66.6,57.6,30.20,North,0,0.0,0.0,73,0.00,,,0.00,WUHU21623XXSP,2013-08-04 14:35:00,
2013-08-04 09:40:00,66.7,57.8,30.20,North,0,0.0,0.0,73,0.00,,,0.00,WUHU21623XXSP,2013-08-04 14:40:00,
2013-08-04 09:46:00,67.1,57.8,30.20,North,0,0.0,0.0,72,0.00,,,0.00,WUHU21623XXSP,2013-08-04 14:46:00,
2013-08-04 09:50:00,67.3,58.0,30.20,North,0,0.0,0.0,72,0.00,,,0.00,WUHU21623XXSP,2013-08-04 14:50:00,
2013-08-04 09:56:00,67.6,57.9,30.20,North,0,0.0,0.0,71,0.00,,,0.00,WUHU21623XXSP,2013-08-04 14:56:00,
2013-08-04 10:01:00,67.6,58.3,30.20,North,0,0.0,0.0,72,0.00,,,0.00,WUHU21623XXSP,2013-08-04 15:01:00,
2013-08-04 10:06:00,67.6,58.3,30.19,North,0,0.0,0.0,71,0.00,,,0.00,WUHU21623XXSP,2013-08-04 15:06:00,
2013-08-04 10:11:00,67.8,58.1,30.19,North,0,0.0,0.0,71,0.00,,,0.00,WUHU21623XXSP,2013-08-04 15:11:00,
2013-08-04 10:16:00,67.8,58.1,30.19,North,0,0.0,0.0,71,0.00,,,0.00,WUHU21623XXSP,2013-08-04 15:16:00,
2013-08-04 10:21:00,67.8,58.1,30.19,North,0,0.0,0.0,71,0.00,,,0.00,WUHU21623XXSP,2013-08-04 15:21:00,
2013-08-04 10:26:00,68.2,58.1,30.19,North,0,0.0,0.0,70,0.00,,,0.00,WUHU21623XXSP,2013-08-04 15:26:00,
2013-08-04 10:30:00,68.0,57.9,30.19,North,0,0.0,0.0,70,0.00,,,0.00,WUHU21623XXSP,2013-08-04 15:30:00,
2013-08-04 10:36:00,68.0,57.9,30.19,North,0,0.0,0.0,70,0.00,,,0.00,WUHU21623XXSP,2013-08-04 15:36:00,
2013-08-04 10:41:00,68.2,57.7,30.18,North,0,0.0,0.0,69,0.00,,,0.00,WUHU21623XXSP,2013-08-04 15:41:00,
2013-08-04 10:46:00,68.2,57.7,30.18,North,0,0.0,0.0,69,0.00,,,0.00,WUHU21623XXSP,2013-08-04 15:46:00,
2013-08-04 10:51:00,68.4,57.8,30.17,North,0,0.0,0.0,69,0.00,,,0.00,WUHU21623XXSP,2013-08-04 15:51:00,
2013-08-04 10:56:00,68.7,58.1,30.17,North,0,0.0,0.0,69,0.00,,,0.00,WUHU21623XXSP,2013-08-04 15:56:00,
2013-08-04 11:01:00,69.1,58.9,30.17,North,0,0.0,0.0,70,0.00,,,0.00,WUHU21623XXSP,2013-08-04 16:01:00,
2013-08-04 11:06:00,69.4,58.8,30.18,North,0,0.0,0.0,69,0.00,,,0.00,WUHU21623XXSP,2013-08-04 16:06:00,
2013-08-04 11:11:00,70.0,59.3,30.18,North,0,0.0,0.0,69,0.00,,,0.00,WUHU21623XXSP,2013-08-04 16:11:00,
2013-08-04 11:16:00,70.3,59.2,30.17,North,0,0.0,0.0,68,0.00,,,0.00,WUHU21623XXSP,2013-08-04 16:16:00,
2013-08-04 11:21:00,70.3,59.2,30.17,North,0,0.0,0.0,68,0.00,,,0.00,WUHU21623XXSP,2013-08-04 16:21:00,
2013-08-04 11:26:00,70.3,59.2,30.17,North,0,0.0,0.0,68,0.00,,,0.00,WUHU21623XXSP,2013-08-04 16:26:00,
2013-08-04 11:31:00,70.0,58.9,30.18,North,0,0.0,0.0,68,0.00,,,0.00,WUHU21623XXSP,2013-08-04 16:31:00,
2013-08-04 11:36:00,69.8,58.7,30.17,North,0,0.0,0.0,68,0.00,,,0.00,WUHU21623XXSP,2013-08-04 16:36:00,
2013-08-04 11:41:00,69.6,58.5,30.16,North,0,0.0,0.0,68,0.00,,,0.00,WUHU21623XXSP,2013-08-04 16:41:00,
2013-08-04 11:46:00,69.4,58.4,30.17,North,0,0.0,0.0,68,0.00,,,0.00,WUHU21623XXSP,2013-08-04 16:46:00,
2013-08-04 11:51:00,69.1,58.5,30.17,North,0,0.0,0.0,69,0.00,,,0.00,WUHU21623XXSP,2013-08-04 16:51:00,
2013-08-04 11:56:00,69.1,58.0,30.17,North,0,0.0,0.0,68,0.00,,,0.00,WUHU21623XXSP,2013-08-04 16:56:00,
2013-08-04 12:02:00,69.1,58.5,30.17,North,0,0.0,0.0,69,0.00,,,0.00,WUHU21623XXSP,2013-08-04 17:02:00,
2013-08-04 12:07:00,69.1,58.5,30.18,North,0,0.0,0.0,69,0.00,,,0.00,WUHU21623XXSP,2013-08-04 17:07:00,
2013-08-04 12:12:00,69.1,58.5,30.17,North,0,0.0,0.0,69,0.00,,,0.00,WUHU21623XXSP,2013-08-04 17:12:00,
2013-08-04 12:17:00,69.3,59.1,30.17,North,0,0.0,0.0,70,0.00,,,0.00,WUHU21623XXSP,2013-08-04 17:17:00,
2013-08-04 12:22:00,69.4,58.8,30.16,North,0,0.0,0.0,69,0.00,,,0.00,WUHU21623XXSP,2013-08-04 17:22:00,
2013-08-04 12:27:00,69.4,58.8,30.16,North,0,0.0,0.0,69,0.00,,,0.00,WUHU21623XXSP,2013-08-04 17:27:00,
2013-08-04 12:32:00,69.6,58.5,30.16,North,0,0.0,0.0,68,0.00,,,0.00,WUHU21623XXSP,2013-08-04 17:32:00,
2013-08-04 12:37:00,70.0,58.9,30.16,North,0,0.0,0.0,68,0.00,,,0.00,WUHU21623XXSP,2013-08-04 17:37:00,
2013-08-04 12:42:00,70.2,58.6,30.16,North,0,0.0,0.0,67,0.00,,,0.00,WUHU21623XXSP,2013-08-04 17:42:00,
2013-08-04 12:47:00,70.2,58.2,30.16,North,0,0.0,0.0,66,0.00,,,0.00,WUHU21623XXSP,2013-08-04 17:47:00,
2013-08-04 12:52:00,70.3,58.4,30.16,North,0,0.0,0.0,66,0.00,,,0.00,WUHU21623XXSP,2013-08-04 17:52:00,
2013-08-04 12:57:00,70.3,58.8,30.16,North,0,0.0,0.0,67,0.00,,,0.00,WUHU21623XXSP,2013-08-04 17:57:00,
2013-08-04 13:02:00,70.2,58.6,30.16,North,0,0.0,0.0,67,0.00,,,0.00,WUHU21623XXSP,2013-08-04 18:02:00,
2013-08-04 13:07:00,70.3,58.8,30.16,North,0,0.0,0.0,67,0.00,,,0.00,WUHU21623XXSP,2013-08-04 18:07:00,
2013-08-04 13:12:00,70.3,59.2,30.16,North,0,0.0,0.0,68,0.00,,,0.00,WUHU21623XXSP,2013-08-04 18:12:00,
2013-08-04 13:17:00,70.5,59.0,30.16,North,0,0.0,0.0,67,0.00,,,0.00,WUHU21623XXSP,2013-08-04 18:17:00,
2013-08-04 13:22:00,70.7,59.2,30.16,North,0,0.0,0.0,67,0.00,,,0.00,WUHU21623XXSP,2013-08-04 18:22:00,
2013-08-04 13:27:00,70.7,59.2,30.16,North,0,0.0,0.0,67,0.00,,,0.00,WUHU21623XXSP,2013-08-04 18:27:00,
2013-08-04 13:32:00,70.9,59.8,30.16,North,0,0.0,0.0,68,0.00,,,0.00,WUHU21623XXSP,2013-08-04 18:32:00,
2013-08-04 13:37:00,71.2,60.1,30.16,North,0,0.0,0.0,68,0.00,,,0.00,WUHU21623XXSP,2013-08-04 18:37:00,
2013-08-04 13:42:00,71.2,59.7,30.16,North,0,0.0,0.0,67,0.00,,,0.00,WUHU21623XXSP,2013-08-04 18:42:00,
2013-08-04 13:47:00,71.2,60.1,30.16,North,0,0.0,0.0,68,0.00,,,0.00,WUHU21623XXSP,2013-08-04 18:47:00,
2013-08-04 13:52:00,71.2,60.1,30.16,North,0,0.0,0.0,68,0.00,,,0.00,WUHU21623XXSP,2013-08-04 18:52:00,
2013-08-04 13:57:00,71.2,60.1,30.16,North,0,0.0,0.0,68,0.00,,,0.00,WUHU21623XXSP,2013-08-04 18:57:00,
2013-08-04 14:02:00,71.4,60.3,30.15,North,0,0.0,0.0,68,0.00,,,0.00,WUHU21623XXSP,2013-08-04 19:02:00,
2013-08-04 14:07:00,71.4,60.3,30.15,North,0,0.0,0.0,68,0.00,,,0.00,WUHU21623XXSP,2013-08-04 19:07:00,
2013-08-04 14:12:00,71.8,60.6,30.15,North,0,0.0,0.0,68,0.00,,,0.00,WUHU21623XXSP,2013-08-04 19:12:00,
2013-08-04 14:17:00,72.3,61.2,30.15,North,0,0.0,0.0,68,0.00,,,0.00,WUHU21623XXSP,2013-08-04 19:17:00,
2013-08-04 14:22:00,72.3,60.7,30.15,North,0,0.0,0.0,67,0.00,,,0.00,WUHU21623XXSP,2013-08-04 19:22:00,
2013-08-04 14:28:00,72.7,61.1,30.14,North,0,0.0,0.0,67,0.00,,,0.00,WUHU21623XXSP,2013-08-04 19:28:00,
2013-08-04 14:33:00,73.2,61.6,30.14,North,0,0.0,0.0,67,0.00,,,0.00,WUHU21623XXSP,2013-08-04 19:33:00,
2013-08-04 14:38:00,73.4,61.3,30.14,North,0,0.0,0.0,66,0.00,,,0.00,WUHU21623XXSP,2013-08-04 19:38:00,
2013-08-04 14:42:00,73.8,61.7,30.14,North,0,0.0,0.0,66,0.00,,,0.00,WUHU21623XXSP,2013-08-04 19:42:00,
2013-08-04 14:48:00,73.8,61.2,30.14,North,0,0.0,0.0,65,0.00,,,0.00,WUHU21623XXSP,2013-08-04 19:48:00,
2013-08-04 14:52:00,74.1,61.6,30.14,North,0,0.0,0.0,65,0.00,,,0.00,WUHU21623XXSP,2013-08-04 19:52:00,
2013-08-04 14:58:00,74.5,61.9,30.14,North,0,0.0,0.0,65,0.00,,,0.00,WUHU21623XXSP,2013-08-04 19:58:00,
2013-08-04 15:03:00,75.0,62.4,30.14,North,0,0.0,0.0,65,0.00,,,0.00,WUHU21623XXSP,2013-08-04 20:03:00,
2013-08-04 15:07:00,75.4,62.8,30.14,North,0,0.0,0.0,65,0.00,,,0.00,WUHU21623XXSP,2013-08-04 20:07:00,
2013-08-04 15:13:00,75.9,62.8,30.14,North,0,0.0,0.0,64,0.00,,,0.00,WUHU21623XXSP,2013-08-04 20:13:00,
2013-08-04 15:18:00,76.3,62.3,30.14,North,0,0.0,0.0,62,0.00,,,0.00,WUHU21623XXSP,2013-08-04 20:18:00,
2013-08-04 15:22:00,76.8,61.9,30.14,North,0,0.0,0.0,60,0.00,,,0.00,WUHU21623XXSP,2013-08-04 20:22:00,
2013-08-04 15:28:00,77.5,62.1,30.14,North,0,0.0,0.0,59,0.00,,,0.00,WUHU21623XXSP,2013-08-04 20:28:00,
2013-08-04 15:33:00,77.5,61.6,30.14,North,0,0.0,0.0,58,0.00,,,0.00,WUHU21623XXSP,2013-08-04 20:33:00,
2013-08-04 15:38:00,77.7,61.2,30.14,North,0,0.0,0.0,57,0.00,,,0.00,WUHU21623XXSP,2013-08-04 20:38:00,
2013-08-04 15:43:00,77.7,61.2,30.13,North,0,0.0,0.0,57,0.00,,,0.00,WUHU21623XXSP,2013-08-04 20:43:00,
2013-08-04 15:48:00,77.7,61.2,30.14,North,0,0.0,0.0,57,0.00,,,0.00,WUHU21623XXSP,2013-08-04 20:48:00,
2013-08-04 15:52:00,78.1,61.1,30.14,North,0,0.0,0.0,56,0.00,,,0.00,WUHU21623XXSP,2013-08-04 20:52:00,
2013-08-04 15:58:00,78.1,60.6,30.14,North,0,0.0,0.0,55,0.00,,,0.00,WUHU21623XXSP,2013-08-04 20:58:00,
2013-08-04 16:03:00,77.8,60.0,30.13,North,0,0.0,0.0,54,0.00,,,0.00,WUHU21623XXSP,2013-08-04 21:03:00,
2013-08-04 16:08:00,77.7,59.9,30.13,North,0,0.0,0.0,54,0.00,,,0.00,WUHU21623XXSP,2013-08-04 21:08:00,
2013-08-04 16:13:00,77.0,59.3,30.13,North,0,0.0,0.0,54,0.00,,,0.00,WUHU21623XXSP,2013-08-04 21:13:00,
2013-08-04 16:18:00,76.7,59.5,30.13,North,0,0.0,0.0,55,0.00,,,0.00,WUHU21623XXSP,2013-08-04 21:18:00,
2013-08-04 16:22:00,76.2,58.5,30.13,North,0,0.0,0.0,54,0.00,,,0.00,WUHU21623XXSP,2013-08-04 21:22:00,
2013-08-04 16:28:00,75.8,58.6,30.13,North,0,0.0,0.0,55,0.00,,,0.00,WUHU21623XXSP,2013-08-04 21:28:00,
2013-08-04 16:33:00,75.5,58.4,30.14,North,0,0.0,0.0,55,0.00,,,0.00,WUHU21623XXSP,2013-08-04 21:33:00,
2013-08-04 16:38:00,75.0,57.9,30.13,North,0,0.0,0.0,55,0.00,,,0.00,WUHU21623XXSP,2013-08-04 21:38:00,
2013-08-04 16:43:00,74.4,57.9,30.13,North,0,0.0,0.0,56,0.00,,,0.00,WUHU21623XXSP,2013-08-04 21:43:00,
2013-08-04 16:48:00,74.0,57.0,30.13,North,0,0.0,0.0,55,0.00,,,0.00,WUHU21623XXSP,2013-08-04 21:48:00,
2013-08-04 16:49:00,74.0,57.0,30.13,North,0,0.0,0.0,55,0.00,,,0.00,WUHU21623XXSP,2013-08-04 21:49:00,
2013-08-04 16:53:00,73.4,56.4,30.13,North,0,0.0,0.0,55,0.00,,,0.00,WUHU21623XXSP,2013-08-04 21:53:00,
2013-08-04 16:59:00,73.1,56.1,30.13,North,0,0.0,0.0,55,0.00,,,0.00,WUHU21623XXSP,2013-08-04 21:59:00,
2013-08-04 17:04:00,72.7,56.3,30.12,North,0,0.0,0.0,56,0.00,,,0.00,WUHU21623XXSP,2013-08-04 22:04:00,
2013-08-04 17:09:00,72.3,56.4,30.12,North,0,0.0,0.0,57,0.00,,,0.00,WUHU21623XXSP,2013-08-04 22:09:00,
2013-08-04 17:14:00,72.2,56.3,30.12,North,0,0.0,0.0,57,0.00,,,0.00,WUHU21623XXSP,2013-08-04 22:14:00,
2013-08-04 17:19:00,71.7,55.8,30.12,North,0,0.0,0.0,57,0.00,,,0.00,WUHU21623XXSP,2013-08-04 22:19:00,
2013-08-04 17:24:00,71.3,55.9,30.11,North,0,0.0,0.0,58,0.00,,,0.00,WUHU21623XXSP,2013-08-04 22:24:00,
2013-08-04 17:29:00,71.0,54.6,30.11,North,0,0.0,0.0,56,0.00,,,0.00,WUHU21623XXSP,2013-08-04 22:29:00,
2013-08-04 17:34:00,70.6,53.3,30.11,North,0,0.0,0.0,54,0.00,,,0.00,WUHU21623XXSP,2013-08-04 22:34:00,
2013-08-04 17:39:00,70.6,52.2,30.11,North,0,0.0,0.0,52,0.00,,,0.00,WUHU21623XXSP,2013-08-04 22:39:00,
2013-08-04 17:44:00,70.5,52.1,30.11,North,0,0.0,0.0,52,0.00,,,0.00,WUHU21623XXSP,2013-08-04 22:44:00,
2013-08-04 17:49:00,70.4,51.4,30.11,North,0,0.0,0.0,51,0.00,,,0.00,WUHU21623XXSP,2013-08-04 22:49:00,
2013-08-04 17:54:00,70.3,51.4,30.11,North,0,0.0,0.0,51,0.00,,,0.00,WUHU21623XXSP,2013-08-04 22:54:00,
2013-08-04 17:59:00,70.2,52.4,30.11,North,0,0.0,0.0,53,0.00,,,0.00,WUHU21623XXSP,2013-08-04 22:59:00,
2013-08-04 18:04:00,70.1,51.8,30.10,North,0,0.0,0.0,52,0.00,,,0.00,WUHU21623XXSP,2013-08-04 23:04:00,
2013-08-04 18:09:00,70.1,51.7,30.10,North,0,0.0,0.0,52,0.00,,,0.00,WUHU21623XXSP,2013-08-04 23:09:00,
2013-08-04 18:14:00,70.4,52.6,30.09,North,0,0.0,0.0,53,0.00,,,0.00,WUHU21623XXSP,2013-08-04 23:14:00,
2013-08-04 18:19:00,71.7,53.8,30.09,North,0,0.0,0.0,53,0.00,,,0.00,WUHU21623XXSP,2013-08-04 23:19:00,
2013-08-04 18:24:00,73.2,54.6,30.09,North,0,0.0,0.0,52,0.00,,,0.00,WUHU21623XXSP,2013-08-04 23:24:00,
2013-08-04 18:29:00,74.1,54.4,30.08,North,0,0.0,0.0,50,0.00,,,0.00,WUHU21623XXSP,2013-08-04 23:29:00,
2013-08-04 18:34:00,74.7,54.3,30.08,North,0,0.0,0.0,49,0.00,,,0.00,WUHU21623XXSP,2013-08-04 23:34:00,
2013-08-04 18:39:00,75.2,54.8,30.08,North,0,0.0,0.0,49,0.00,,,0.00,WUHU21623XXSP,2013-08-04 23:39:00,
2013-08-04 18:44:00,75.8,54.8,30.08,North,0,0.0,0.0,48,0.00,,,0.00,WUHU21623XXSP,2013-08-04 23:44:00,
2013-08-04 18:49:00,76.0,55.0,30.08,North,0,0.0,0.0,48,0.00,,,0.00,WUHU21623XXSP,2013-08-04 23:49:00,
2013-08-04 18:54:00,76.0,55.0,30.08,North,0,0.0,0.0,48,0.00,,,0.00,WUHU21623XXSP,2013-08-04 23:54:00,
2013-08-04 18:59:00,76.2,55.1,30.07,North,0,0.0,0.0,48,0.00,,,0.00,WUHU21623XXSP,2013-08-04 23:59:00,
2013-08-04 19:04:00,76.2,55.1,30.07,North,0,0.0,0.0,48,0.00,,,0.00,WUHU21623XXSP,2013-08-05 00:04:00,
2013-08-04 19:09:00,76.0,55.0,30.07,North,0,0.0,0.0,48,0.00,,,0.00,WUHU21623XXSP,2013-08-05 00:09:00,
2013-08-04 19:14:00,75.8,55.4,30.07,North,0,0.0,0.0,49,0.00,,,0.00,WUHU21623XXSP,2013-08-05 00:14:00,
2013-08-04 19:19:00,75.5,55.1,30.07,North,0,0.0,0.0,49,0.00,,,0.00,WUHU21623XXSP,2013-08-05 00:19:00,
2013-08-04 19:24:00,75.2,54.8,30.06,North,0,0.0,0.0,49,0.00,,,0.00,WUHU21623XXSP,2013-08-05 00:24:00,
2013-08-04 19:29:00,75.0,55.2,30.06,North,0,0.0,0.0,50,0.00,,,0.00,WUHU21623XXSP,2013-08-05 00:29:00,
2013-08-04 19:34:00,75.1,55.2,30.06,North,0,0.0,0.0,50,0.00,,,0.00,WUHU21623XXSP,2013-08-05 00:34:00,
2013-08-04 19:39:00,75.1,55.8,30.06,North,0,0.0,0.0,51,0.00,,,0.00,WUHU21623XXSP,2013-08-05 00:39:00,
2013-08-04 19:44:00,74.9,55.6,30.06,North,0,0.0,0.0,51,0.00,,,0.00,WUHU21623XXSP,2013-08-05 00:44:00,
2013-08-04 19:49:00,74.5,55.3,30.06,North,0,0.0,0.0,51,0.00,,,0.00,WUHU21623XXSP,2013-08-05 00:49:00,
2013-08-04 19:55:00,74.4,55.7,30.05,North,0,0.0,0.0,52,0.00,,,0.00,WUHU21623XXSP,2013-08-05 00:55:00,
2013-08-04 20:00:00,74.4,55.7,30.05,North,0,0.0,0.0,52,0.00,,,0.00,WUHU21623XXSP,2013-08-05 01:00:00,
2013-08-04 20:04:00,74.0,55.4,30.05,North,0,0.0,0.0,52,0.00,,,0.00,WUHU21623XXSP,2013-08-05 01:04:00,
2013-08-04 20:10:00,73.7,55.1,30.05,North,0,0.0,0.0,52,0.00,,,0.00,WUHU21623XXSP,2013-08-05 01:10:00,
2013-08-04 20:15:00,72.9,54.4,30.05,North,0,0.0,0.0,52,0.00,,,0.00,WUHU21623XXSP,2013-08-05 01:15:00,
2013-08-04 20:19:00,72.0,54.0,30.04,North,0,0.0,0.0,53,0.00,,,0.00,WUHU21623XXSP,2013-08-05 01:19:00,
2013-08-04 20:24:00,71.0,53.6,30.04,North,0,0.0,0.0,54,0.00,,,0.00,WUHU21623XXSP,2013-08-05 01:24:00,
2013-08-04 20:30:00,69.6,52.9,30.04,North,0,0.0,0.0,55,0.00,,,0.00,WUHU21623XXSP,2013-08-05 01:30:00,
2013-08-04 20:34:00,69.0,52.8,30.04,North,0,0.0,0.0,56,0.00,,,0.00,WUHU21623XXSP,2013-08-05 01:34:00,
2013-08-04 20:39:00,68.6,52.9,30.04,North,0,0.0,0.0,57,0.00,,,0.00,WUHU21623XXSP,2013-08-05 01:39:00,
2013-08-04 20:44:00,67.9,52.7,30.04,North,0,0.0,0.0,58,0.00,,,0.00,WUHU21623XXSP,2013-08-05 01:44:00,
2013-08-04 20:50:00,67.4,52.7,30.04,North,0,0.0,0.0,59,0.00,,,0.00,WUHU21623XXSP,2013-08-05 01:50:00,
2013-08-04 20:55:00,66.8,52.6,30.04,North,0,0.0,0.0,60,0.00,,,0.00,WUHU21623XXSP,2013-08-05 01:55:00,
2013-08-04 21:00:00,66.7,52.6,30.04,North,0,0.0,0.0,60,0.00,,,0.00,WUHU21623XXSP,2013-08-05 02:00:00,
2013-08-04 21:05:00,66.7,53.0,30.04,North,0,0.0,0.0,61,0.00,,,0.00,WUHU21623XXSP,2013-08-05 02:05:00,
2013-08-04 21:10:00,66.3,52.6,30.04,North,0,0.0,0.0,61,0.00,,,0.00,WUHU21623XXSP,2013-08-05 02:10:00,
2013-08-04 21:15:00,66.2,53.0,30.04,North,0,0.0,0.0,62,0.00,,,0.00,WUHU21623XXSP,2013-08-05 02:15:00,
2013-08-04 21:20:00,66.3,53.0,30.04,North,0,0.0,0.0,62,0.00,,,0.00,WUHU21623XXSP,2013-08-05 02:20:00,
2013-08-04 21:25:00,66.0,53.3,30.04,North,0,0.0,0.0,63,0.00,,,0.00,WUHU21623XXSP,2013-08-05 02:25:00,
2013-08-04 21:30:00,66.0,53.2,30.04,North,0,0.0,0.0,63,0.00,,,0.00,WUHU21623XXSP,2013-08-05 02:30:00,
2013-08-04 21:35:00,65.9,53.6,30.03,North,0,0.0,0.0,64,0.00,,,0.00,WUHU21623XXSP,2013-08-05 02:35:00,
2013-08-04 21:40:00,65.8,53.9,30.04,North,0,0.0,0.0,65,0.00,,,0.00,WUHU21623XXSP,2013-08-05 02:40:00,
2013-08-04 21:45:00,65.9,54.0,30.04,North,0,0.0,0.0,65,0.00,,,0.00,WUHU21623XXSP,2013-08-05 02:45:00,
2013-08-04 21:50:00,65.7,54.2,30.04,North,0,0.0,0.0,66,0.00,,,0.00,WUHU21623XXSP,2013-08-05 02:50:00,
2013-08-04 21:55:00,65.8,54.3,30.04,North,0,0.0,0.0,66,0.00,,,0.00,WUHU21623XXSP,2013-08-05 02:55:00,
2013-08-04 22:00:00,65.8,54.7,30.04,North,0,0.0,0.0,67,0.00,,,0.00,WUHU21623XXSP,2013-08-05 03:00:00,
2013-08-04 22:05:00,65.7,54.4,30.04,North,0,0.0,0.0,67,0.00,,,0.00,WUHU21623XXSP,2013-08-05 03:05:00,
2013-08-04 22:10:00,65.3,54.5,30.04,North,0,0.0,0.0,68,0.00,,,0.00,WUHU21623XXSP,2013-08-05 03:10:00,
2013-08-04 22:15:00,65.3,54.5,30.04,North,0,0.0,0.0,68,0.00,,,0.00,WUHU21623XXSP,2013-08-05 03:15:00,
2013-08-04 22:20:00,65.1,54.7,30.04,North,0,0.0,0.0,69,0.00,,,0.00,WUHU21623XXSP,2013-08-05 03:20:00,
2013-08-04 22:25:00,64.9,54.6,30.03,North,0,0.0,0.0,69,0.00,,,0.00,WUHU21623XXSP,2013-08-05 03:25:00,
2013-08-04 22:30:00,64.9,55.0,30.03,North,0,0.0,0.0,70,0.00,,,0.00,WUHU21623XXSP,2013-08-05 03:30:00,
2013-08-04 22:35:00,64.8,54.8,30.04,North,0,0.0,0.0,70,0.00,,,0.00,WUHU21623XXSP,2013-08-05 03:35:00,
2013-08-04 22:40:00,64.6,55.0,30.03,North,0,0.0,0.0,71,0.00,,,0.00,WUHU21623XXSP,2013-08-05 03:40:00,
2013-08-04 22:45:00,64.6,55.0,30.04,North,0,0.0,0.0,71,0.00,,,0.00,WUHU21623XXSP,2013-08-05 03:45:00,
2013-08-04 22:50:00,64.6,55.0,30.04,North,0,0.0,0.0,71,0.00,,,0.00,WUHU21623XXSP,2013-08-05 03:50:00,
2013-08-04 22:55:00,64.4,54.9,30.03,North,0,0.0,0.0,71,0.00,,,0.00,WUHU21623XXSP,2013-08-05 03:55:00,
2013-08-04 23:00:00,64.4,55.2,30.03,North,0,0.0,0.0,72,0.00,,,0.00,WUHU21623XXSP,2013-08-05 04:00:00,
2013-08-04 23:01:00,64.4,55.2,30.03,North,0,0.0,0.0,72,0.00,,,0.00,WUHU21623XXSP,2013-08-05 04:01:00,
2013-08-04 23:06:00,64.2,55.0,30.03,North,0,0.0,0.0,72,0.00,,,0.00,WUHU21623XXSP,2013-08-05 04:06:00,
2013-08-04 23:11:00,64.2,55.0,30.02,North,0,0.0,0.0,72,0.00,,,0.00,WUHU21623XXSP,2013-08-05 04:11:00,
2013-08-04 23:17:00,64.2,55.0,30.01,North,0,0.0,0.0,72,0.00,,,0.00,WUHU21623XXSP,2013-08-05 04:17:00,
2013-08-04 23:22:00,64.2,55.0,30.01,North,0,0.0,0.0,72,0.00,,,0.00,WUHU21623XXSP,2013-08-05 04:22:00,
2013-08-04 23:26:00,64.0,54.9,30.01,North,0,0.0,0.0,72,0.00,,,0.00,WUHU21623XXSP,2013-08-05 04:26:00,
2013-08-04 23:32:00,64.0,55.2,30.01,North,0,0.0,0.0,73,0.00,,,0.00,WUHU21623XXSP,2013-08-05 04:32:00,
2013-08-04 23:37:00,64.0,55.2,30.01,North,0,0.0,0.0,73,0.00,,,0.00,WUHU21623XXSP,2013-08-05 04:37:00,
2013-08-04 23:42:00,64.0,55.2,30.00,North,0,0.0,0.0,73,0.00,,,0.00,WUHU21623XXSP,2013-08-05 04:42:00,
2013-08-04 23:47:00,64.0,55.6,30.00,North,0,0.0,0.0,74,0.00,,,0.00,WUHU21623XXSP,2013-08-05 04:47:00,
2013-08-04 23:52:00,64.0,55.6,30.00,North,0,0.0,0.0,74,0.00,,,0.00,WUHU21623XXSP,2013-08-05 04:52:00,
2013-08-04 23:57:00,64.0,55.6,29.99,North,0,0.0,0.0,74,0.00,,,0.00,WUHU21623XXSP,2013-08-05 04:57:00,